Location: Fountain Hills
(33.6120°N, 111.7170°W)
Time: 17:07:41
(UTC-07:00)

Hamsat - Visible Passes

Search period start: 03 March 2015 00:00
Search period end: 13 March 2015 00:00
Orbit: 590 x 625 km, 97.6° (Epoch: 02 March)

Date Brightness Start Highest point End Pass type
(mag) Time Alt. Az. Time Alt. Az. Time Alt. Az.
03 Mar ? 06:02:20 10° N 06:06:38 80° WNW 06:10:56 10° SSW visible
04 Mar ? 06:15:52 10° N 06:20:04 54° WNW 06:24:16 10° SSW visible
05 Mar ? 04:55:02 10° ENE 04:57:23 15° E 04:59:56 10° SE visible
06 Mar ? 05:07:42 10° NE 05:10:57 21° E 05:14:20 10° SE visible
07 Mar ? 05:20:40 10° NE 05:24:28 31° E 05:28:20 10° SSE visible
08 Mar ? 05:33:49 10° NNE 05:37:57 45° E 05:42:07 10° S visible
09 Mar ? 05:47:05 10° NNE 05:51:24 67° E 05:55:42 10° S visible
10 Mar ? 06:00:28 10° N 06:04:48 83° WNW 06:09:08 10° SSW visible
11 Mar ? 06:13:55 10° N 06:18:11 56° WNW 06:22:24 10° SSW visible
12 Mar ? 04:53:08 10° ENE 04:55:25 14° E 04:57:56 10° SE visible
